Back to catalog

STARLINK-6056

AliveCommunicationsVLEO
NORAD 56813·PAYLOAD·🇺🇸 United States

Launched May 31, 2023 from Vandenberg Space Force Base

Loading…

Next Passes (next 24 hours)

TLE

FreshSource: CelesTrak SupGP

Epoch: Sep 14, 2026, 14:26 UTC

1 56813C 23078AY  26257.60187500 -.00042578  00000+0 -35689-2 0  2579
2 56813  70.0011 227.9619 0003450 269.6113  24.4059 14.98342991    15

Track STARLINK-6056 in real time with AllMySat

Download on the App Store